EHI
0 0 0 0 0 0 0 0 0 0 0 0 0 1 2 4 6 6 4 5 7 9 8 9 13 17 15 9 3 1 0 0 0 0 0 0 0 0 0 0 0 0 0 0
0 0 0 0 0 0 0 0 1 1 1 0 0 1 3 4 6 8 7 6 7 9 10 10 13 17 15 9 5 3 2 0 0 0 0 0 0 0 0 0 0 0 0 0
0 0 0 0 0 1 1 1 2 3 2 1 0 1 2 3 5 8 9 8 7 9 11 11 14 16 15 12 8 6 4 2 0 0 0 0 0 0 0 0 0 0 0 0
0 0 0 0 0 1 2 2 4 4 2 1 0 1 1 2 4 7 10 10 8 8 10 11 14 16 16 15 12 9 7 5 2 1 0 0 0 0 0 0 0 0 0 0
0 0 0 0 0 1 2 3 4 4 2 1 0 0 0 2 4 6 10 12 10 9 9 9 12 15 16 16 14 11 9 8 5 2 1 0 0 0 0 0 0 0 0 0
0 0 0 0 1 2 1 1 2 3 2 1 1 1 1 2 3 5 8 10 10 10 9 9 11 13 15 16 15 12 10 8 6 3 1 0 0 0 0 0 0 0 0 0
0 0 0 0 1 2 1 0 1 2 2 1 1 2 3 3 4 4 5 7 9 10 12 14 16 17 16 16 16 13 10 8 7 4 1 0 0 0 0 0 0 0 0 0
0 0 0 0 1 1 0 0 0 1 2 2 2 3 4 4 3 4 6 7 9 11 14 19 22 22 18 15 15 14 11 9 8 6 2 0 0 0 0 0 0 0 0 0
0 0 0 0 0 1 0 0 0 1 2 2 3 4 4 3 4 6 8 9 11 14 16 19 23 23 17 13 14 13 11 9 9 6 3 1 1 0 0 0 0 0 0 0
0 0 0 0 0 0 0 1 1 1 1 1 2 3 3 3 4 7 10 11 12 15 16 17 18 18 14 11 11 11 10 9 8 6 4 3 2 1 0 0 0 0 0 0
0 0 0 0 0 0 1 2 2 1 0 0 1 2 1 1 3 6 10 11 12 14 15 14 13 11 9 7 8 8 8 8 8 7 4 2 2 1 0 0 0 0 0 0
0 0 0 0 0 0 1 2 3 2 0 0 0 0 0 0 1 4 7 11 12 13 13 11 10 7 5 4 4 5 5 5 6 5 2 1 1 0 0 0 0 0 0 0
0 0 0 0 0 0 0 1 2 2 1 1 0 1 1 1 2 4 6 9 12 12 11 10 8 5 3 3 3 3 2 2 2 2 1 0 0 0 0 0 0 0 0 0
0 0 0 0 0 0 0 0 1 1 1 1 1 2 4 5 6 6 6 7 9 9 9 9 7 4 3 3 2 1 0 0 0 0 0 0 0 0 0 0 0 0 0 0
0 0 0 0 0 0 0 0 0 0 1 1 1 2 4 6 7 7 6 5 6 7 7 7 5 4 3 1 1 0 0 0 0 0 0 0 0 0 0 0 0 0 0 0
0 0 0 0 0 0 0 0 0 0 0 0 0 1 2 3 4 4 4 4 5 5 5 4 3 2 2 1 0 0 0 0 0 0 0 0 0 0 0 0 0 0 0 0
0 0 0 0 0 0 0 0 0 0 0 0 0 0 0 0 1 3 3 3 2 3 3 2 1 1 1 0 0 0 0 0 0 0 0 0 0 0 0 0 0 0 0 0
0 0 0 0 0 0 0 0 0 0 0 0 0 0 0 0 1 3 3 2 1 1 1 0 0 0 0 0 0 0 0 0 0 0 0 0 0 0 0 0 0 0 0 0
0 0 0 0 0 0 0 0 0 0 0 0 0 0 0 1 2 3 3 1 0 0 0 0 0 0 0 0 0 0 0 0 0 0 0 0 0 0 0 0 0 0 0 0
0 0 0 0 0 0 0 0 0 0 0 0 0 0 0 1 3 3 2 1 0 0 0 0 0 0 0 0 0 0 0 0 0 0 0 0 0 0 0 0 0 0 0 0
0 0 0 0 0 0 0 0 0 0 0 0 0 0 1 2 2 2 2 1 0 0 0 0 0 0 0 0 0 0 0 0 0 0 0 0 0 0 0 0 0 0 0 0
0 0 0 0 0 0 0 0 0 0 0 0 0 0 1 1 1 1 1 0 0 0 0 0 0 0 0 0 0 0 0 0 0 0 0 0 0 0 0 0 0 0 0 0
0 0 0 0 0 0 0 0 0 0 0 0 0 0 0 0 0 0 0 0 0 0 0 0 0 0 0 0 0 0 0 0 0 0 0 0 0 0 0 0 0 0 0 0
0 0 0 0 0 0 0 0 0 0 0 0 0 0 0 0 0 0 0 0 0 0 0 0 0 0 0 0 0 0 0 0 0 0 0 0 0 0 0 0 0 0 0 0
0 0 0 0 0 0 0 0 0 0 0 0 0 0 0 0 0 0 0 0 0 0 0 0 0 0 0 0 0 0 0 0 0 0 0 0 0 0 0 0 0 0 0 0
0 0 0 0 0 0 0 0 0 0 0 0 0 0 0 0 0 0 0 0 0 0 0 0 0 0 0 0 0 0 0 0 0 0 0 0 0 0 0 0 0 0 0 0
0 0 0 0 0 0 0 0 0 0 0 0 0 0 0 0 0 0 0 0 0 0 0 0 0 0 0 0 0 0 0 0 0 0 0 0 0 0 0 0 0 0 0 0
Wind_Speed
3 3 2 3 5 4 4 7 7 8 8 10 10 9 9 9 10 12 14 16 18 17 15 14 14 13 13 13 12 12 12 11 11 9 8 8 8 8 7 7 7 6 5 5
2 3 3 4 6 6 6 6 7 6 7 7 6 5 6 8 12 14 15 17 18 18 18 17 17 16 15 14 13 13 13 12 11 10 9 9 9 8 7 7 6 6 6 6
2 3 3 5 6 6 5 4 5 6 7 4 5 8 10 11 12 15 15 16 18 18 19 19 18 17 17 16 14 14 13 12 12 12 11 10 10 9 8 8 6 6 6 6
2 1 5 8 3 2 2 1 0 1 3 5 9 9 6 7 11 13 14 16 16 16 17 16 16 16 16 15 15 15 14 13 13 12 12 10 9 9 8 6 6 6 6 6
3 3 5 6 3 2 2 3 3 2 5 4 2 2 2 4 7 11 13 13 14 14 15 15 16 16 15 15 15 15 15 14 14 14 12 11 11 10 7 6 6 6 5 6
2 3 5 5 5 5 1 2 4 4 4 2 3 2 5 5 4 7 7 8 10 10 10 13 14 15 16 16 16 16 16 15 14 13 13 13 11 9 6 6 7 7 6 6
3 3 5 3 6 4 2 4 5 4 4 3 1 4 6 5 3 5 5 6 8 9 10 12 14 15 16 15 17 16 13 12 12 13 13 11 10 7 6 7 7 6 7 6
2 2 5 3 3 1 3 4 3 3 2 4 3 4 5 3 3 4 4 6 8 9 8 9 12 15 16 16 15 11 11 12 12 12 11 10 9 8 7 8 7 6 5 5
4 5 5 3 3 4 3 3 4 3 3 3 3 3 4 2 1 4 5 6 7 9 8 7 10 13 15 13 11 11 11 12 11 11 9 9 10 9 7 6 6 5 5 5
2 5 5 4 3 4 3 3 3 3 4 3 3 3 5 3 1 3 4 5 5 7 8 6 7 9 9 9 11 12 12 11 10 10 9 8 7 7 6 7 6 6 6 6
4 4 4 5 3 4 3 3 3 4 3 2 3 3 3 3 2 3 4 4 5 7 7 6 6 6 7 8 10 10 9 9 8 8 8 7 7 7 8 8 8 8 7 6
5 5 3 5 4 2 2 3 1 2 3 4 3 3 3 4 3 4 5 6 7 7 7 6 6 6 6 7 9 9 8 7 6 6 6 5 5 4 6 7 10 11 10 8
5 4 3 3 2 2 1 2 4 4 4 4 5 4 5 5 5 6 7 8 8 8 7 7 7 6 5 6 7 7 7 6 5 5 5 5 5 5 3 3 5 7 9 10
1 2 2 2 2 4 4 6 7 7 7 6 6 6 6 7 8 8 7 7 8 9 8 8 8 6 4 6 7 6 5 5 5 4 4 5 5 4 4 4 3 3 5 8
3 3 3 3 5 6 5 7 8 8 8 9 8 8 9 10 10 8 7 7 9 10 9 8 8 5 4 6 7 6 5 3 3 3 3 4 4 3 3 4 3 3 2 2
4 6 6 8 8 7 7 9 8 8 8 7 8 8 9 10 10 10 9 9 11 9 7 7 6 4 5 6 6 5 4 5 4 3 2 2 2 2 2 2 3 2 2 3
6 5 5 6 7 7 7 7 7 7 7 7 6 7 8 9 10 10 8 8 9 8 6 6 5 5 5 5 5 3 3 3 4 3 2 1 2 2 2 2 2 2 2 2
4 4 5 5 6 7 6 6 6 7 7 7 7 8 8 8 8 7 6 6 8 8 6 5 5 5 5 5 4 3 3 2 2 2 1 1 1 1 1 1 1 2 1 1
8 7 6 6 6 6 5 5 5 6 6 7 8 8 7 6 6 6 6 7 7 6 3 3 6 6 5 5 4 3 3 3 3 2 1 1 1 1 1 1 1 1 1 1
8 8 8 7 6 6 6 6 6 6 5 6 7 7 7 6 6 6 7 6 3 2 1 3 4 4 4 4 5 3 3 2 2 1 1 1 1 1 0 0 1 1 1 1
8 8 8 8 7 7 6 6 6 6 5 6 7 6 6 5 5 5 6 5 3 2 4 5 4 3 3 3 4 3 3 2 2 1 1 0 0 0 0 0 0 1 1 1
7 7 7 7 7 7 6 5 6 6 7 7 7 6 7 6 5 5 4 2 1 4 4 3 2 3 4 4 3 3 2 2 2 1 1 1 0 0 0 0 0 1 1 1
6 6 7 7 7 7 7 7 7 6 6 6 6 6 6 4 3 4 3 2 2 4 4 2 3 5 6 4 3 3 3 2 2 2 2 1 1 1 1 1 0 0 1 1
5 6 6 6 7 8 7 6 5 5 5 6 5 5 5 5 4 3 2 3 4 4 3 3 5 6 5 3 3 3 3 3 2 2 2 2 2 2 2 1 1 1 1 1
5 5 6 7 6 4 4 4 5 6 5 5 5 5 4 3 2 1 2 3 4 4 3 5 6 6 4 3 3 3 3 2 3 3 3 2 2 2 2 2 2 2 2 2
5 4 4 4 4 3 3 4 4 4 4 4 4 4 3 3 3 3 3 4 5 5 3 3 4 4 3 3 2 2 2 2 3 2 2 2 2 2 2 2 3 2 2 3
5 4 4 4 4 4 4 4 4 3 3 3 3 3 3 3 3 3 4 4 4 3 3 3 3 3 2 2 2 2 2 2 2 2 2 2 2 2 2 3 2 2 3 3
Wind_Direction
241 258 238 240 246 232 204 195 200 230 220 230 227 224 219 204 189 181 179 180 181 180 180 178 177 177 177 177 176 173 169 174 179 176 172 168 167 167 167 169 174 175 176 185
300 289 292 278 262 241 233 223 227 241 248 248 237 222 216 207 189 187 186 187 186 183 181 182 182 181 180 180 179 174 175 180 178 173 172 173 173 172 172 177 177 177 185 191
265 300 342 272 251 239 226 221 203 223 244 260 230 225 215 212 194 190 191 190 188 187 186 186 185 182 182 182 177 177 180 180 178 177 178 179 179 175 180 184 181 183 192 195
180 60 236 244 272 279 238 274 211 245 274 223 221 228 216 206 201 196 191 189 188 188 188 187 184 182 180 177 177 180 182 182 181 180 182 179 178 182 185 182 183 188 197 200
152 188 267 287 310 292 246 294 5 328 301 275 265 64 305 233 203 201 192 190 190 188 185 183 183 180 175 177 179 182 185 186 184 182 181 180 184 187 185 180 186 191 193 197
150 184 234 252 300 293 134 283 352 346 327 333 63 116 258 265 227 217 198 186 182 178 174 180 183 175 174 179 181 188 189 187 183 180 181 184 187 185 180 180 190 192 202 205
192 225 257 282 308 343 155 247 313 322 335 343 243 223 256 263 237 212 193 185 170 165 174 182 178 173 179 182 189 191 185 179 177 180 182 183 182 180 176 179 185 195 207 215
165 214 258 323 353 41 241 272 287 296 330 327 309 312 318 293 218 190 172 165 160 163 174 177 173 173 180 189 189 176 171 173 177 179 183 183 177 181 180 179 187 198 208 223
195 222 249 250 230 253 257 268 285 303 315 317 330 2 3 19 168 164 154 157 164 166 164 167 171 174 182 187 170 165 170 175 176 177 180 174 176 181 180 184 191 200 205 219
260 268 272 285 283 284 266 260 286 308 315 339 357 18 25 37 70 125 130 151 149 146 151 165 173 176 180 169 162 164 171 174 172 174 176 174 176 179 184 191 197 202 209 220
250 272 307 313 297 285 289 292 317 323 349 22 30 30 36 41 58 95 99 111 122 131 141 149 150 152 147 145 149 159 167 168 169 173 176 180 185 190 193 201 199 200 210 210
226 232 211 263 284 286 290 303 323 38 51 49 74 66 55 61 64 79 91 97 101 104 109 112 118 122 128 140 148 153 157 161 166 169 174 177 180 197 212 209 208 209 213 211
213 220 206 258 333 23 50 43 59 69 68 65 59 61 70 69 63 73 81 91 100 102 103 104 105 107 116 128 134 143 152 159 160 166 170 172 175 180 198 237 230 225 226 227
217 115 66 19 7 28 60 70 73 64 56 59 63 60 72 74 70 73 79 91 96 94 93 96 97 95 112 126 129 133 137 147 151 161 165 171 178 184 185 191 212 247 239 231
60 92 108 75 52 44 54 75 77 70 65 62 65 68 73 74 70 65 70 84 87 84 82 83 82 75 83 108 119 125 130 139 148 149 154 163 171 177 185 191 201 221 243 256
84 73 74 68 57 46 51 65 73 74 73 70 71 74 78 82 80 73 66 74 81 79 76 78 75 68 78 91 97 98 102 110 121 127 137 146 160 170 179 185 194 201 219 242
98 86 81 74 67 58 58 64 74 80 77 77 78 87 89 85 82 78 73 72 78 78 76 78 75 67 72 82 90 91 88 93 103 103 111 133 138 158 175 183 195 206 227 230
99 112 112 108 95 80 62 61 67 74 78 81 81 81 90 94 96 92 84 77 74 65 59 68 78 74 68 69 77 77 77 73 78 97 116 126 141 154 154 164 197 210 239 252
74 83 86 82 84 90 85 78 73 72 76 81 82 78 80 86 90 90 88 84 80 70 39 54 75 70 63 55 65 75 76 73 70 68 80 94 87 90 119 142 171 219 233 250
69 72 76 75 76 82 83 78 77 73 72 85 89 85 80 77 82 84 82 76 74 108 105 80 77 66 59 52 58 66 71 74 71 61 60 81 100 98 118 185 202 219 224 231
63 66 68 66 66 68 73 78 82 77 71 77 86 91 91 84 80 85 85 69 17 44 74 73 66 57 51 48 53 56 56 56 56 57 72 98 106 115 214 243 235 232 240 250
53 59 64 66 65 61 58 66 75 76 73 70 72 79 82 75 67 65 65 81 54 59 62 51 43 45 46 43 41 45 46 44 36 36 39 35 56 174 274 289 281 281 271 262
48 54 59 65 69 70 63 59 63 72 75 74 77 80 80 79 83 88 62 359 27 47 48 35 34 42 42 44 43 43 40 40 37 33 24 15 13 24 13 4 318 306 309 312
52 51 52 59 66 67 63 55 55 59 64 64 66 75 80 70 49 39 56 39 40 40 36 24 27 33 36 41 42 41 39 40 42 40 31 23 21 30 30 14 351 332 327 328
54 52 51 58 60 58 56 57 57 53 55 58 56 54 61 77 83 51 46 46 45 43 28 17 19 26 35 42 44 47 49 50 55 55 48 38 28 23 19 11 1 349 345 339
53 53 53 57 58 54 51 59 62 57 56 52 41 36 42 45 48 44 38 32 34 35 29 20 24 28 31 36 46 55 53 43 44 48 47 41 35 30 17 8 3 0 352 345
52 48 45 41 37 43 53 62 67 63 64 71 55 31 35 40 44 39 33 29 30 29 25 27 33 35 35 40 52 52 44 36 31 32 34 29 21 8 357 358 351 346 346 342